Weather History for Raleigh-Durham Airport, NC

Change the Weather History Date:

Tuesday, December 6, 2011

  Actual Average Record
Temperature  
Mean Temperature 66 °F 46 °F  
Max Temperature 72 °F 56 °F 80 °F (1998)
Min Temperature 60 °F 35 °F 19 °F (1969)
Degree Days  
Heating Degree Days 0 19  
Month to date heating degree days 83 111  
Since 1 July heating degree days 615 692  
Cooling Degree Days 1 0  
Month to date cooling degree days 1 0  
Year to date cooling degree days 2133 1728  
Growing Degree Days 16 (Base 50)    
Moisture  
Dew Point 58 °F    
Average Humidity 76    
Maximum Humidity 90    
Minimum Humidity 61    
Precipitation  
Precipitation 0.00 in 0.10 in 2.12 in (1983)
Month to date precipitation T 0.61  
Year to date precipitation 41.65 40.88  
Snow  
Snow 0.00 in 0.00 in 2.40 in (1954)
Month to date snowfall 0.0 0.0  
Since 1 July snowfall 0.0 0.1  
Snow Depth 0.00 in    
Sea Level Pressure  
Sea Level Pressure 30.09 in    
Wind  
Wind Speed 8 mph (SSW)    
Max Wind Speed 16 mph    
Max Gust Speed 22 mph    
Visibility 10 miles    
Events      
T = Trace of Precipitation, MM = Missing Value Source: NWS Daily Summary

Daily Weather History Graph

Daily Weather History Graph

Search for Another Location

Airport:

Trip Planner

Search our weather history database for the weather conditions in past years. The results will help you decide how hot, cold, wet, or windy it might be!

Date:

Astronomy

Dec. 06, 2011 Rise Set
Actual Time 7:11 AM EST 5:00 PM EST
Civil Twilight 6:42 AM EST 5:29 PM EST
Nautical Twilight 6:10 AM EST 6:01 PM EST
Astronomical Twilight 5:39 AM EST 6:32 PM EST
Moon 2:23 PM EST (12/6) 3:32 AM EST (12/6)
Length of Visible Light 10h 46m
Length of Day
9h 49m
Waxing Gibbous, 86% of the Moon is Illuminated
Dec 6
Waxing Gibbous
Dec 10
Full
Dec 17
Last Quarter
Dec 24
New
Jan 1
First Quarter

Hourly Weather History & Observations

Time (EST) Temp. Dew Point Humidity Pressure Visibility Wind Dir Wind Speed Gust Speed Precip Events Conditions
12:51 AM 62.1 °F 55.9 °F 80% 30.17 in 10.0 mi SSW 5.8 mph - N/A   Mostly Cloudy
1:51 AM 61.0 °F 57.0 °F 87% 30.17 in 7.0 mi SSW 4.6 mph - N/A   Overcast
2:09 AM 60.8 °F 57.2 °F 88% 30.17 in 8.0 mi SSW 3.5 mph - N/A   Overcast
2:51 AM 61.0 °F 57.0 °F 87% 30.17 in 10.0 mi SSW 5.8 mph - N/A   Overcast
3:51 AM 60.1 °F 57.0 °F 90% 30.14 in 10.0 mi South 3.5 mph - N/A   Mostly Cloudy
4:51 AM 61.0 °F 57.9 °F 90% 30.14 in 10.0 mi SSW 4.6 mph - N/A   Mostly Cloudy
5:51 AM 60.1 °F 57.9 °F 93% 30.14 in 10.0 mi South 6.9 mph - N/A   Mostly Cloudy
6:51 AM 61.0 °F 57.9 °F 90% 30.14 in 10.0 mi South 6.9 mph - N/A   Mostly Cloudy
7:51 AM 61.0 °F 57.9 °F 90% 30.14 in 9.0 mi SSW 8.1 mph - N/A   Overcast
8:51 AM 62.1 °F 59.0 °F 90% 30.14 in 8.0 mi SSW 8.1 mph - N/A   Overcast
9:51 AM 64.0 °F 59.0 °F 84% 30.14 in 10.0 mi SSW 6.9 mph - N/A   Overcast
10:19 AM 64.4 °F 59.0 °F 83% 30.15 in 10.0 mi SW 9.2 mph - N/A   Overcast
10:51 AM 64.9 °F 59.0 °F 81% 30.14 in 10.0 mi SW 9.2 mph - N/A   Overcast
11:51 AM 66.9 °F 59.0 °F 76% 30.10 in 10.0 mi SSW 8.1 mph - N/A   Overcast
12:30 PM 68.0 °F 59.0 °F 73% 30.10 in 10.0 mi SW 9.2 mph - N/A   Overcast
12:51 PM 69.8 °F 59.0 °F 68% 30.08 in 10.0 mi SSW 10.4 mph - N/A   Overcast
1:38 PM 69.8 °F 57.2 °F 64% 30.07 in 10.0 mi SSW 11.5 mph - N/A   Overcast
1:51 PM 69.1 °F 57.9 °F 68% 30.06 in 10.0 mi SW 11.5 mph - N/A   Overcast
2:51 PM 71.1 °F 57.0 °F 61% 30.04 in 10.0 mi SSW 11.5 mph - N/A   Mostly Cloudy
3:51 PM 71.1 °F 57.9 °F 63% 30.03 in 10.0 mi SSW 8.1 mph - N/A   Mostly Cloudy
4:51 PM 70.0 °F 55.9 °F 61% 30.03 in 10.0 mi South 9.2 mph - N/A   Mostly Cloudy
5:51 PM 68.0 °F 55.9 °F 65% 30.04 in 10.0 mi SSW 5.8 mph - N/A   Mostly Cloudy
6:51 PM 66.0 °F 57.0 °F 73% 30.03 in 10.0 mi South 8.1 mph - N/A   Mostly Cloudy
7:51 PM 66.0 °F 57.9 °F 75% 30.03 in 10.0 mi South 8.1 mph - N/A   Mostly Cloudy
8:51 PM 66.0 °F 59.0 °F 78% 30.03 in 10.0 mi South 10.4 mph - N/A   Mostly Cloudy
9:51 PM 66.0 °F 57.9 °F 75% 30.00 in 10.0 mi South 10.4 mph - N/A   Overcast
10:51 PM 64.9 °F 57.9 °F 78% 29.99 in 10.0 mi South 8.1 mph - N/A   Overcast
11:51 PM 64.9 °F 59.0 °F 81% 29.99 in 10.0 mi SSW 9.2 mph - N/A   Overcast